Overview Statistics Trail Chart Weather Telemetry Raw packets
 

This is the latest recevied weather packets stored in our database for station/object 4S6DRJ-13. If no packets are shown the sender has not sent any weather packets the latest 10 day(s).

<< 336 337 338 339 340 341 342 >>
Time Temp. Humidity Pressure Rain* Wind** Luminosity Snow
1787964978 27.78° C 86% 1009.4 hPa 0.51 mm 0 m/s 14 W/m² -
1787964917 27.78° C 86% 1009.4 hPa 0.51 mm 0 m/s 14 W/m² -
1787964856 27.78° C 86% 1009.3 hPa 0 mm 0.89 m/s, 218° 13 W/m² -
1787964795 27.78° C 85% 1009.3 hPa 0 mm 0.89 m/s, 227° 11 W/m² -
1787964734 27.78° C 85% 1009.1 hPa 0 mm 0.45 m/s, 218° 10 W/m² -
1787964673 27.78° C 85% 1009.4 hPa 0 mm 0.89 m/s, 268° 12 W/m² -
1787964614 27.78° C 85% 1009.3 hPa 0 mm 0.89 m/s, 228° 13 W/m² -
1787964551 27.78° C 85% 1009.2 hPa 0 mm 0.45 m/s, 171° 14 W/m² -
1787964490 27.78° C 85% 1009.4 hPa 0 mm 1.34 m/s, 234° 13 W/m² -
1787964429 27.78° C 85% 1009.1 hPa 0 mm 1.34 m/s, 234° 12 W/m² -
1787964368 27.78° C 85% 1009.3 hPa 0 mm 1.34 m/s, 270° 11 W/m² -
1787964316 27.78° C 85% 1009.4 hPa 0 mm 0 m/s 10 W/m² -
1787964246 27.78° C 85% 1009.3 hPa 0 mm 0.89 m/s, 229° 10 W/m² -
1787964185 27.78° C 85% 1009.4 hPa 0 mm 0.89 m/s, 267° 9 W/m² -
1787964124 27.78° C 85% 1009.4 hPa 0 mm 0.89 m/s, 216° 7 W/m² -
1787964063 27.78° C 85% 1009.4 hPa 0 mm 0.45 m/s, 212° 7 W/m² -
1787964001 27.78° C 85% 1009.4 hPa 0 mm 0.45 m/s, 277° 6 W/m² -
1787963940 27.78° C 85% 1009.5 hPa 0 mm 0.89 m/s, 5° 5 W/m² -
1787963880 27.78° C 85% 1009.6 hPa 0 mm 1.34 m/s, 206° 5 W/m² -
1787963819 27.78° C 85% 1009.5 hPa 0 mm 1.34 m/s, 238° 4 W/m² -
1787963757 27.78° C 85% 1009.5 hPa 0 mm 0.45 m/s, 242° 3 W/m² -
1787963697 27.78° C 85% 1009.4 hPa 0 mm 1.34 m/s, 315° 3 W/m² -
1787963635 27.78° C 85% 1009.5 hPa 0 mm 0.89 m/s, 226° 3 W/m² -
1787963575 27.78° C 85% 1009.3 hPa 0 mm 0.45 m/s, 257° 2 W/m² -
1787963514 27.78° C 86% 1009.4 hPa 0 mm 0.89 m/s, 236° 2 W/m² -

* Rain latest hour (hover to see other rain measurements)
** Current wind speed in m/s (hover to see current wind gust speed)